When you browse on this site, cookies collect data to enhance your experience and personalize the content and advertising you see.
Visit our Privacy Policy to learn more. By continuing to use the site, you agree to this use of cookies and data.
  • In Portugal
  • List of Countries
  • For 7 days
  • Water Temperature
  • Weather Map
  • Weather Widgets
  • user-avatar
    Login

    Hourly Weather Pernik

    Today, 1 April, Wednesday

    Time Temperature Precipitation Wind Pressure Humidity
    00:00 -2°C° 0.7 mm 2 mps 690 mmHg 95%
    01:00 -2°C° 0.7 mm 2 mps 690 mmHg 95%
    02:00 -3°C° 0.7 mm 2 mps 690 mmHg 95%
    03:00 -3°C° 0.6 mm 2 mps 690 mmHg 95%
    04:00 -3°C° 0.6 mm 2 mps 689 mmHg 95%
    05:00 -4°C° 0.6 mm 3 mps 689 mmHg 95%
    06:00 -5°C° 0.6 mm 3 mps 689 mmHg 95%
    07:00 -5°C° 0.6 mm 3 mps 689 mmHg 94%
    08:00 -5°C° 0.6 mm 3 mps 689 mmHg 93%
    09:00 -4°C° 0.3 mm 3 mps 689 mmHg 91%
    10:00 -3°C° 0.3 mm 4 mps 689 mmHg 90%
    11:00 -3°C° 0.3 mm 4 mps 689 mmHg 88%
    12:00 -2°C° 0.2 mm 4 mps 689 mmHg 89%
    13:00 -2°C° 0.2 mm 4 mps 689 mmHg 90%
    14:00 -2°C° 0.2 mm 5 mps 689 mmHg 91%
    15:00 -2°C° 0.2 mm 4 mps 688 mmHg 91%
    16:00 -2°C° 0.2 mm 4 mps 688 mmHg 91%
    17:00 -2°C° 0.2 mm 4 mps 688 mmHg 91%
    18:00 -2°C° 0.6 mm 4 mps 688 mmHg 93%
    19:00 -2°C° 0.6 mm 3 mps 688 mmHg 95%
    20:00 -2°C° 0.6 mm 3 mps 688 mmHg 96%
    21:00 -2°C° 0.9 mm 3 mps 688 mmHg 96%
    22:00 -2°C° 0.9 mm 2 mps 688 mmHg 96%
    23:00 -3°C° 0.9 mm 2 mps 688 mmHg 97%

    Tomorrow, 2 April, Thursday

    Time Temperature Precipitation Wind Pressure Humidity
    00:00 -3°C° 0.6 mm 2 mps 688 mmHg 97%
    01:00 -3°C° 0.6 mm 2 mps 688 mmHg 97%
    02:00 -3°C° 0.6 mm 2 mps 688 mmHg 97%
    03:00 -3°C° 0.2 mm 2 mps 688 mmHg 97%
    04:00 -4°C° 0.2 mm 2 mps 688 mmHg 96%
    05:00 -2°C° 0.2 mm 1 mps 688 mmHg 96%
    06:00 -4°C° 0 mm 2 mps 688 mmHg 95%
    07:00 -3°C° 0 mm 2 mps 688 mmHg 94%
    08:00 -3°C° 0 mm 2 mps 689 mmHg 93%
    09:00 -2°C° 0 mm 2 mps 689 mmHg 93%
    10:00 -1°C° 0 mm 2 mps 689 mmHg 93%
    11:00 -1°C° 0 mm 2 mps 689 mmHg 93%
    12:00 +1°C° 0 mm 2 mps 689 mmHg 92%
    13:00 +2°C° 0 mm 1 mps 689 mmHg 92%
    14:00 +3°C° 0 mm 1 mps 689 mmHg 91%
    15:00 +3°C° 0 mm 1 mps 688 mmHg 91%
    16:00 +3°C° 0 mm 1 mps 688 mmHg 90%
    17:00 +3°C° 0 mm 1 mps 688 mmHg 90%
    18:00 +2°C° 0 mm 1 mps 688 mmHg 91%
    19:00 +2°C° 0 mm 1 mps 688 mmHg 92%
    20:00 +1°C° 0 mm 1 mps 688 mmHg 93%
    21:00 -1°C° 0 mm 0 mps 688 mmHg 92%
    22:00 -1°C° 0 mm 0 mps 688 mmHg 92%
    23:00 -2°C° 0 mm 0 mps 688 mmHg 92%

    Day after tomorrow, 3 April, Friday

    Time Temperature Precipitation Wind Pressure Humidity
    00:00 -2°C° 0 mm 0 mps 688 mmHg 92%
    01:00 -2°C° 0 mm 0 mps 688 mmHg 92%
    02:00 -2°C° 0 mm 0 mps 687 mmHg 92%
    03:00 -1°C° 0 mm 1 mps 687 mmHg 93%
    04:00 -1°C° 0 mm 1 mps 687 mmHg 93%
    05:00 -1°C° 0 mm 1 mps 687 mmHg 93%
    06:00 0°C° 0 mm 1 mps 688 mmHg 92%
    07:00 +1°C° 0 mm 1 mps 688 mmHg 91%
    08:00 +2°C° 0 mm 1 mps 688 mmHg 90%
    09:00 +3°C° 0 mm 1 mps 688 mmHg 88%
    10:00 +4°C° 0 mm 1 mps 689 mmHg 87%
    11:00 +5°C° 0 mm 1 mps 689 mmHg 85%
    12:00 +5°C° 0 mm 2 mps 689 mmHg 82%
    13:00 +6°C° 0 mm 2 mps 689 mmHg 80%
    14:00 +7°C° 0 mm 2 mps 689 mmHg 77%
    15:00 +7°C° 0 mm 2 mps 689 mmHg 78%
    16:00 +7°C° 0 mm 2 mps 689 mmHg 78%
    17:00 +8°C° 0 mm 1 mps 689 mmHg 78%
    18:00 +7°C° 0 mm 1 mps 689 mmHg 81%
    19:00 +6°C° 0 mm 1 mps 689 mmHg 83%
    20:00 +4°C° 0 mm 1 mps 689 mmHg 86%
    21:00 +3°C° 0 mm 0 mps 689 mmHg 86%
    22:00 +3°C° 0 mm 0 mps 690 mmHg 87%
    23:00 +2°C° 0 mm 0 mps 690 mmHg 88%

    4 April, Saturday

    Time Temperature Precipitation Wind Pressure Humidity
    00:00 +2°C° 0 mm 0 mps 690 mmHg 88%
    01:00 +2°C° 0 mm 0 mps 690 mmHg 88%
    02:00 +2°C° 0 mm 0 mps 690 mmHg 89%
    03:00 +2°C° 0 mm 0 mps 690 mmHg 89%
    04:00 +1°C° 0 mm 0 mps 690 mmHg 90%
    05:00 +2°C° 0 mm 1 mps 690 mmHg 90%
    06:00 +3°C° 0 mm 1 mps 691 mmHg 88%
    07:00 +4°C° 0 mm 1 mps 691 mmHg 86%
    08:00 +5°C° 0 mm 1 mps 692 mmHg 84%
    09:00 +6°C° 0 mm 1 mps 692 mmHg 79%
    10:00 +7°C° 0 mm 1 mps 692 mmHg 75%
    11:00 +8°C° 0 mm 2 mps 693 mmHg 70%
    12:00 +8°C° 0 mm 2 mps 693 mmHg 70%
    13:00 +8°C° 0 mm 2 mps 693 mmHg 69%
    14:00 +9°C° 0 mm 2 mps 693 mmHg 68%
    15:00 +9°C° 0.1 mm 2 mps 693 mmHg 70%
    16:00 +9°C° 0.1 mm 3 mps 692 mmHg 71%
    17:00 +8°C° 0.1 mm 3 mps 692 mmHg 73%
    18:00 +7°C° 0 mm 3 mps 693 mmHg 77%
    19:00 +6°C° 0 mm 2 mps 693 mmHg 82%
    20:00 +5°C° 0 mm 2 mps 693 mmHg 86%
    21:00 +5°C° 0 mm 2 mps 693 mmHg 87%
    22:00 +4°C° 0 mm 2 mps 693 mmHg 87%
    23:00 +4°C° 0 mm 2 mps 694 mmHg 87%

    5 April, Sunday

    Time Temperature Precipitation Wind Pressure Humidity
    00:00 +4°C° 0 mm 2 mps 694 mmHg 88%
    01:00 +4°C° 0 mm 2 mps 694 mmHg 89%
    02:00 +4°C° 0 mm 2 mps 694 mmHg 90%
    03:00 +4°C° 0 mm 2 mps 694 mmHg 91%
    04:00 +4°C° 0 mm 2 mps 694 mmHg 91%
    05:00 +4°C° 0 mm 2 mps 694 mmHg 92%
    06:00 +3°C° 0 mm 3 mps 694 mmHg 88%
    07:00 +4°C° 0 mm 4 mps 694 mmHg 83%
    08:00 +5°C° 0 mm 4 mps 695 mmHg 79%
    09:00 +6°C° 0 mm 5 mps 695 mmHg 73%
    10:00 +7°C° 0 mm 6 mps 695 mmHg 67%
    11:00 +8°C° 0 mm 7 mps 695 mmHg 61%
    12:00 +8°C° 0 mm 7 mps 695 mmHg 61%
    13:00 +8°C° 0 mm 7 mps 694 mmHg 61%
    14:00 +7°C° 0 mm 8 mps 694 mmHg 61%
    15:00 +7°C° 0 mm 8 mps 694 mmHg 63%
    16:00 +6°C° 0 mm 7 mps 694 mmHg 65%
    17:00 +6°C° 0 mm 7 mps 694 mmHg 67%
    18:00 +5°C° 0 mm 7 mps 694 mmHg 70%
    19:00 +4°C° 0 mm 6 mps 694 mmHg 73%
    20:00 +5°C° 0 mm 5 mps 694 mmHg 76%
    21:00 +3°C° 0 mm 5 mps 695 mmHg 76%
    22:00 +3°C° 0 mm 5 mps 695 mmHg 76%
    23:00 +2°C° 0 mm 5 mps 695 mmHg 77%

    6 April, Monday

    Time Temperature Precipitation Wind Pressure Humidity
    00:00 +2°C° 0 mm 5 mps 695 mmHg 76%
    01:00 +1°C° 0 mm 5 mps 695 mmHg 74%
    02:00 +1°C° 0 mm 5 mps 695 mmHg 73%
    03:00 0°C° 0 mm 5 mps 695 mmHg 75%
    04:00 0°C° 0 mm 5 mps 695 mmHg 78%
    05:00 0°C° 0 mm 5 mps 696 mmHg 80%
    06:00 0°C° 0 mm 5 mps 696 mmHg 78%
    07:00 0°C° 0 mm 5 mps 696 mmHg 76%
    08:00 -1°C° 0 mm 6 mps 697 mmHg 74%
    09:00 +1°C° 0 mm 6 mps 697 mmHg 70%
    10:00 +2°C° 0 mm 6 mps 697 mmHg 66%
    11:00 +3°C° 0 mm 6 mps 697 mmHg 62%
    12:00 +3°C° 0 mm 6 mps 697 mmHg 60%
    13:00 +4°C° 0 mm 7 mps 698 mmHg 59%
    14:00 +4°C° 0 mm 7 mps 698 mmHg 57%
    15:00 +4°C° 0 mm 7 mps 697 mmHg 58%
    16:00 +4°C° 0 mm 7 mps 697 mmHg 59%
    17:00 +4°C° 0 mm 7 mps 697 mmHg 61%
    18:00 +3°C° 0 mm 6 mps 697 mmHg 63%
    19:00 +2°C° 0 mm 5 mps 698 mmHg 66%
    20:00 +1°C° 0 mm 4 mps 698 mmHg 69%
    21:00 0°C° 0 mm 4 mps 698 mmHg 69%
    22:00 -1°C° 0 mm 4 mps 698 mmHg 70%
    23:00 -1°C° 0 mm 3 mps 699 mmHg 70%
    Show more